Year,Month,Day,Hour,Minute,Value (Times are PST for temperature in C)
2009,04,28,08,23,5.10
2009,04,28,08,24,5.20
2009,04,28,08,25,5.20
2009,04,28,08,26,5.30
2009,04,28,08,27,5.30
2009,04,28,08,28,5.40
2009,04,28,08,29,5.40
2009,04,28,08,30,5.50
2009,04,28,08,31,5.60
2009,04,28,08,32,5.60
2009,04,28,08,33,5.70
2009,04,28,08,34,5.70
2009,04,28,08,35,5.80
2009,04,28,08,36,5.80
2009,04,28,08,37,5.90
2009,04,28,08,38,5.90
2009,04,28,08,39,6.00
2009,04,28,08,40,6.10
2009,04,28,08,41,6.10
2009,04,28,08,42,6.20
2009,04,28,08,43,6.20
2009,04,28,08,44,6.20
2009,04,28,08,45,6.30
2009,04,28,08,46,6.40
2009,04,28,08,47,6.40
2009,04,28,08,48,6.40
2009,04,28,08,49,6.50
2009,04,28,08,50,6.60
2009,04,28,08,51,6.60
2009,04,28,08,52,6.70
2009,04,28,08,53,6.70
2009,04,28,08,54,6.80
2009,04,28,08,55,6.80
2009,04,28,08,56,6.90
2009,04,28,08,57,6.90
2009,04,28,08,58,7.00
2009,04,28,08,59,7.10
2009,04,28,09,00,7.20
2009,04,28,09,01,7.20
2009,04,28,09,02,7.30
2009,04,28,09,03,7.40
2009,04,28,09,04,7.60
2009,04,28,09,05,7.70
2009,04,28,09,06,7.80
2009,04,28,09,07,8.00
2009,04,28,09,08,8.10
2009,04,28,09,09,8.20
2009,04,28,09,10,8.30
2009,04,28,09,11,8.30
2009,04,28,09,12,8.40
2009,04,28,09,13,8.50
2009,04,28,09,14,8.60
2009,04,28,09,15,8.70
2009,04,28,09,16,8.70
2009,04,28,09,17,8.80
2009,04,28,09,18,8.80
2009,04,28,09,19,8.80
2009,04,28,09,20,8.90
2009,04,28,09,21,8.90
2009,04,28,09,22,9.00
2009,04,28,09,23,9.00
2009,04,28,09,24,9.10
2009,04,28,09,25,9.20
2009,04,28,09,26,9.20
2009,04,28,09,27,9.30
2009,04,28,09,28,9.40
2009,04,28,09,29,9.50
2009,04,28,09,30,9.50
2009,04,28,09,31,9.60
2009,04,28,09,32,9.70
2009,04,28,09,33,9.80
2009,04,28,09,34,9.90
2009,04,28,09,35,10.00
2009,04,28,09,36,10.10
2009,04,28,09,37,10.20
2009,04,28,09,38,10.30
2009,04,28,09,39,10.30
2009,04,28,09,40,10.40
2009,04,28,09,41,10.50
2009,04,28,09,42,10.60
2009,04,28,09,43,10.60
2009,04,28,09,44,10.70
2009,04,28,09,45,10.80
2009,04,28,09,46,10.90
2009,04,28,09,47,11.00
2009,04,28,09,48,11.10
2009,04,28,09,49,11.20
2009,04,28,09,50,11.20
2009,04,28,09,51,11.30
2009,04,28,09,52,11.40
2009,04,28,09,53,11.50
2009,04,28,09,54,11.60
2009,04,28,09,55,11.60
2009,04,28,09,56,11.70
2009,04,28,09,57,11.80
2009,04,28,09,58,11.80
2009,04,28,09,59,11.90
2009,04,28,10,00,11.90
2009,04,28,10,01,12.00
2009,04,28,10,02,12.00
2009,04,28,10,03,12.10
2009,04,28,10,04,12.10
2009,04,28,10,05,12.10
2009,04,28,10,06,12.00
2009,04,28,10,07,12.00
2009,04,28,10,08,11.90
2009,04,28,10,09,11.90
2009,04,28,10,10,11.80
2009,04,28,10,11,11.80
2009,04,28,10,12,11.80
2009,04,28,10,13,11.70
2009,04,28,10,14,11.70
2009,04,28,10,15,11.70
2009,04,28,10,16,11.70
2009,04,28,10,17,11.70
2009,04,28,10,18,11.70
2009,04,28,10,19,11.70
2009,04,28,10,20,11.70
2009,04,28,10,21,11.80
2009,04,28,10,22,11.80
2009,04,28,10,23,11.80
2009,04,28,10,24,11.80
2009,04,28,10,25,11.80
2009,04,28,10,26,11.70
2009,04,28,10,27,11.80
2009,04,28,10,28,11.80
2009,04,28,10,29,11.80
2009,04,28,10,30,11.80
2009,04,28,10,31,11.80
2009,04,28,10,32,11.80
2009,04,28,10,33,11.90
2009,04,28,10,34,11.90
2009,04,28,10,35,11.90
2009,04,28,10,36,11.90
2009,04,28,10,37,11.90
2009,04,28,10,38,11.90
2009,04,28,10,39,12.00
2009,04,28,10,40,12.00
2009,04,28,10,41,12.00
2009,04,28,10,42,12.10
2009,04,28,10,43,12.10
2009,04,28,10,44,12.10
2009,04,28,10,45,12.20
2009,04,28,10,46,12.20
2009,04,28,10,47,12.20
2009,04,28,10,48,12.20
2009,04,28,10,49,12.20
2009,04,28,10,50,12.30
2009,04,28,10,51,12.30
2009,04,28,10,52,12.30
2009,04,28,10,53,12.30
2009,04,28,10,54,12.30
2009,04,28,10,55,12.30
2009,04,28,10,56,12.40
2009,04,28,10,57,12.40
2009,04,28,10,58,12.40
2009,04,28,10,59,12.40
2009,04,28,11,00,12.40
2009,04,28,11,01,12.40
2009,04,28,11,02,12.40
2009,04,28,11,03,12.40
2009,04,28,11,04,12.40
2009,04,28,11,05,12.40
2009,04,28,11,06,12.40
2009,04,28,11,07,12.40
2009,04,28,11,08,12.40
2009,04,28,11,09,12.50
2009,04,28,11,10,12.50
2009,04,28,11,11,12.60
2009,04,28,11,12,12.70
2009,04,28,11,13,12.80
2009,04,28,11,14,12.80
2009,04,28,11,15,12.80
2009,04,28,11,16,12.80
2009,04,28,11,17,12.90
2009,04,28,11,18,12.90
2009,04,28,11,19,13.00
2009,04,28,11,20,13.10
2009,04,28,11,21,13.10
2009,04,28,11,22,13.10
2009,04,28,11,23,13.00
2009,04,28,11,24,12.90
2009,04,28,11,25,12.90
2009,04,28,11,26,13.00
2009,04,28,11,27,13.00
2009,04,28,11,28,13.00
2009,04,28,11,29,13.10
2009,04,28,11,30,13.10
2009,04,28,11,31,13.00
2009,04,28,11,32,12.90
2009,04,28,11,33,12.80
2009,04,28,11,34,12.70
2009,04,28,11,35,12.70
2009,04,28,11,36,12.70
2009,04,28,11,37,12.60
2009,04,28,11,38,12.60
2009,04,28,11,39,12.70
2009,04,28,11,40,12.70
2009,04,28,11,41,12.70
2009,04,28,11,42,12.70
2009,04,28,11,43,12.60
2009,04,28,11,44,12.60
2009,04,28,11,45,12.60
2009,04,28,11,46,12.50
2009,04,28,11,47,12.50
2009,04,28,11,48,12.50
2009,04,28,11,49,12.50
2009,04,28,11,50,12.50
2009,04,28,11,51,12.50
2009,04,28,11,52,12.60
2009,04,28,11,53,12.60
2009,04,28,11,54,12.60
2009,04,28,11,55,12.60
2009,04,28,11,56,12.60
2009,04,28,11,57,12.70
2009,04,28,11,58,12.70
2009,04,28,11,59,12.70
2009,04,28,12,00,12.70
2009,04,28,12,01,12.70
2009,04,28,12,02,12.70
2009,04,28,12,03,12.70
2009,04,28,12,04,12.70
2009,04,28,12,05,12.70
2009,04,28,12,06,12.60
2009,04,28,12,07,12.60
2009,04,28,12,08,12.60
2009,04,28,12,09,12.60
2009,04,28,12,10,12.50
2009,04,28,12,11,12.50
2009,04,28,12,12,12.50
2009,04,28,12,13,12.60
2009,04,28,12,14,12.60
2009,04,28,12,15,12.60
2009,04,28,12,16,12.60
2009,04,28,12,17,12.60
2009,04,28,12,18,12.60
2009,04,28,12,19,12.60
2009,04,28,12,20,12.60
2009,04,28,12,21,12.60
2009,04,28,12,22,12.60
2009,04,28,12,23,12.60
2009,04,28,12,24,12.60
2009,04,28,12,25,12.50
2009,04,28,12,26,12.50
2009,04,28,12,27,12.60
2009,04,28,12,28,12.60
2009,04,28,12,29,12.60
2009,04,28,12,30,12.60
2009,04,28,12,31,12.60
2009,04,28,12,32,12.70
2009,04,28,12,33,12.70
2009,04,28,12,34,12.80
2009,04,28,12,35,12.80
2009,04,28,12,36,12.80
2009,04,28,12,37,12.70
2009,04,28,12,38,12.70
2009,04,28,12,39,12.70
2009,04,28,12,40,12.70
2009,04,28,12,41,12.70
2009,04,28,12,42,12.70
2009,04,28,12,43,12.70
2009,04,28,12,44,12.70
2009,04,28,12,45,12.70
2009,04,28,12,46,12.70
2009,04,28,12,47,12.70
2009,04,28,12,48,12.80
2009,04,28,12,49,12.80
2009,04,28,12,50,12.80
2009,04,28,12,51,12.90
2009,04,28,12,52,12.90
2009,04,28,12,53,12.90
2009,04,28,12,54,12.90
2009,04,28,12,55,12.90
2009,04,28,12,56,12.90
2009,04,28,12,57,12.90
2009,04,28,12,58,13.00
2009,04,28,12,59,13.00
2009,04,28,13,00,13.00
2009,04,28,13,01,13.10
2009,04,28,13,02,13.10
2009,04,28,13,03,13.20
2009,04,28,13,04,13.20
2009,04,28,13,05,13.30
2009,04,28,13,06,13.30
2009,04,28,13,07,13.30
2009,04,28,13,08,13.30
2009,04,28,13,09,13.20
2009,04,28,13,10,13.20
2009,04,28,13,11,13.30
2009,04,28,13,12,13.30
2009,04,28,13,13,13.30
2009,04,28,13,14,13.30
2009,04,28,13,15,13.30
2009,04,28,13,16,13.30
2009,04,28,13,17,13.30
2009,04,28,13,18,13.30
2009,04,28,13,19,13.30
2009,04,28,13,20,13.40
2009,04,28,13,21,13.30
2009,04,28,13,22,13.30
2009,04,28,13,23,13.30
2009,04,28,13,24,13.40
2009,04,28,13,25,13.40
2009,04,28,13,26,13.50
2009,04,28,13,27,13.60
2009,04,28,13,28,13.60
2009,04,28,13,29,13.60
2009,04,28,13,30,13.60
2009,04,28,13,31,13.50
2009,04,28,13,32,13.60
2009,04,28,13,33,13.60
2009,04,28,13,34,13.60
2009,04,28,13,35,13.60
2009,04,28,13,36,13.60
2009,04,28,13,37,13.60
2009,04,28,13,38,13.60
2009,04,28,13,39,13.60
2009,04,28,13,40,13.60
2009,04,28,13,41,13.50
2009,04,28,13,42,13.50
2009,04,28,13,43,13.40
2009,04,28,13,44,13.50
2009,04,28,13,45,13.50
2009,04,28,13,46,13.50
2009,04,28,13,47,13.60
2009,04,28,13,48,13.50
2009,04,28,13,49,13.50
2009,04,28,13,50,13.50
2009,04,28,13,51,13.60
2009,04,28,13,52,13.60
2009,04,28,13,53,13.60
2009,04,28,13,54,13.60
2009,04,28,13,55,13.70
2009,04,28,13,56,13.70
2009,04,28,13,57,13.70
2009,04,28,13,58,13.70
2009,04,28,13,59,13.70
2009,04,28,14,00,13.80
2009,04,28,14,01,13.80
2009,04,28,14,02,13.80
2009,04,28,14,03,13.80
2009,04,28,14,04,13.80
2009,04,28,14,05,13.80
2009,04,28,14,06,13.80
2009,04,28,14,07,13.80
2009,04,28,14,08,13.70
2009,04,28,14,09,13.70
2009,04,28,14,10,13.60
2009,04,28,14,11,13.60
2009,04,28,14,12,13.50
2009,04,28,14,13,13.40
2009,04,28,14,14,13.40
2009,04,28,14,15,13.40
2009,04,28,14,16,13.50
2009,04,28,14,17,13.60
2009,04,28,14,18,13.70
2009,04,28,14,19,13.80
2009,04,28,14,20,13.90
2009,04,28,14,21,14.00
2009,04,28,14,22,14.00
2009,04,28,14,23,14.00
2009,04,28,14,24,14.10
2009,04,28,14,25,14.00
2009,04,28,14,26,13.90
2009,04,28,14,27,13.90
2009,04,28,14,28,13.80
2009,04,28,14,29,13.80
2009,04,28,14,30,13.80
2009,04,28,14,31,13.80
2009,04,28,14,32,13.80
2009,04,28,14,33,13.90
2009,04,28,14,34,13.80
2009,04,28,14,35,13.70
2009,04,28,14,36,13.60
2009,04,28,14,37,13.50
2009,04,28,14,38,13.50
2009,04,28,14,39,13.60
2009,04,28,14,40,13.60
2009,04,28,14,41,13.60
2009,04,28,14,42,13.50
2009,04,28,14,43,13.50
2009,04,28,14,44,13.50
2009,04,28,14,45,13.50
2009,04,28,14,46,13.60
2009,04,28,14,47,13.60
2009,04,28,14,48,13.70
2009,04,28,14,49,13.70
2009,04,28,14,50,13.70
2009,04,28,14,51,13.60
2009,04,28,14,52,13.60
2009,04,28,14,53,13.60
2009,04,28,14,54,13.60
2009,04,28,14,55,13.60
2009,04,28,14,56,13.70
2009,04,28,14,57,13.70
2009,04,28,14,58,13.70
2009,04,28,14,59,13.60
2009,04,28,15,00,13.60
2009,04,28,15,01,13.60
2009,04,28,15,02,13.60
2009,04,28,15,03,13.60
2009,04,28,15,04,13.60
2009,04,28,15,05,13.60
2009,04,28,15,06,13.60
2009,04,28,15,07,13.60
2009,04,28,15,08,13.50
2009,04,28,15,09,13.50
2009,04,28,15,10,13.40
2009,04,28,15,11,13.40
2009,04,28,15,12,13.30
2009,04,28,15,13,13.30
2009,04,28,15,14,13.40
2009,04,28,15,15,13.40
2009,04,28,15,16,13.40
2009,04,28,15,17,13.40
2009,04,28,15,18,13.40
2009,04,28,15,19,13.40
2009,04,28,15,20,13.30
2009,04,28,15,21,13.30
2009,04,28,15,22,13.30
2009,04,28,15,23,13.30
2009,04,28,15,24,13.30
2009,04,28,15,25,13.30
2009,04,28,15,26,13.30
2009,04,28,15,27,13.30
2009,04,28,15,28,13.30
2009,04,28,15,29,13.40
2009,04,28,15,30,13.40
2009,04,28,15,31,13.40
2009,04,28,15,32,13.40
2009,04,28,15,33,13.40
2009,04,28,15,34,13.50
2009,04,28,15,35,13.60
2009,04,28,15,36,13.60
2009,04,28,15,37,13.70
2009,04,28,15,38,13.70
2009,04,28,15,39,13.70
2009,04,28,15,40,13.80
2009,04,28,15,41,13.70
2009,04,28,15,42,13.60
2009,04,28,15,43,13.60
2009,04,28,15,44,13.60
2009,04,28,15,45,13.60
2009,04,28,15,46,13.60
2009,04,28,15,47,13.60
2009,04,28,15,48,13.50
2009,04,28,15,49,13.50
2009,04,28,15,50,13.50
2009,04,28,15,51,13.60
2009,04,28,15,52,13.60
2009,04,28,15,53,13.60
2009,04,28,15,54,13.70
2009,04,28,15,55,13.70
2009,04,28,15,56,13.70
2009,04,28,15,57,13.70
2009,04,28,15,58,13.70
2009,04,28,15,59,13.70
2009,04,28,16,00,13.70
2009,04,28,16,01,13.80
2009,04,28,16,02,13.90
2009,04,28,16,03,13.90
2009,04,28,16,04,13.90
2009,04,28,16,05,13.90
2009,04,28,16,06,14.00
2009,04,28,16,07,14.00
2009,04,28,16,08,14.10
2009,04,28,16,09,14.10
2009,04,28,16,10,14.10
2009,04,28,16,11,14.20
2009,04,28,16,12,14.20
2009,04,28,16,13,14.30
2009,04,28,16,14,14.40
2009,04,28,16,15,14.50
2009,04,28,16,16,14.60
2009,04,28,16,17,14.60
2009,04,28,16,18,14.60
2009,04,28,16,19,14.50
2009,04,28,16,20,14.50
2009,04,28,16,21,14.40
2009,04,28,16,22,14.40
2009,04,28,16,23,14.50
2009,04,28,16,24,14.50
2009,04,28,16,25,14.60
2009,04,28,16,26,14.60
2009,04,28,16,27,14.70
2009,04,28,16,28,14.70
2009,04,28,16,29,14.70
2009,04,28,16,30,14.70
2009,04,28,16,31,14.70
2009,04,28,16,32,14.80
2009,04,28,16,33,14.80
2009,04,28,16,34,14.70
2009,04,28,16,35,14.70
2009,04,28,16,36,14.70
2009,04,28,16,37,14.70
2009,04,28,16,38,14.70
2009,04,28,16,39,14.70
2009,04,28,16,40,14.70
2009,04,28,16,41,14.70
2009,04,28,16,42,14.70
2009,04,28,16,43,14.70
2009,04,28,16,44,14.80
2009,04,28,16,45,14.80
2009,04,28,16,46,14.90
2009,04,28,16,47,14.90
2009,04,28,16,48,15.00
2009,04,28,16,49,15.00
2009,04,28,16,50,15.00
2009,04,28,16,51,15.00
2009,04,28,16,52,15.00
2009,04,28,16,53,15.00
2009,04,28,16,54,15.00
2009,04,28,16,55,15.00
2009,04,28,16,56,15.00
2009,04,28,16,57,15.00
2009,04,28,16,58,15.00
2009,04,28,16,59,15.00
2009,04,28,17,00,15.00
2009,04,28,17,01,15.10
2009,04,28,17,02,15.10
2009,04,28,17,03,15.10
2009,04,28,17,04,15.10
2009,04,28,17,05,15.00
2009,04,28,17,06,15.00
2009,04,28,17,07,15.00
2009,04,28,17,08,15.00
2009,04,28,17,09,15.00
2009,04,28,17,10,15.00
2009,04,28,17,11,15.00
2009,04,28,17,12,15.00
2009,04,28,17,13,15.00
2009,04,28,17,14,15.00
2009,04,28,17,15,15.00
2009,04,28,17,16,15.00
2009,04,28,17,17,15.00
2009,04,28,17,18,15.00
2009,04,28,17,19,15.00
2009,04,28,17,20,15.00
2009,04,28,17,21,15.00
2009,04,28,17,22,15.00
2009,04,28,17,23,15.00
2009,04,28,17,24,15.00
2009,04,28,17,25,15.10
2009,04,28,17,26,15.10
2009,04,28,17,27,15.10
2009,04,28,17,28,15.10
2009,04,28,17,29,15.00
2009,04,28,17,30,15.00
2009,04,28,17,31,15.00
2009,04,28,17,32,15.00
2009,04,28,17,33,15.00
2009,04,28,17,34,14.90
2009,04,28,17,35,14.90
2009,04,28,17,36,14.90
2009,04,28,17,37,14.90
2009,04,28,17,38,14.90
2009,04,28,17,39,14.90
2009,04,28,17,40,14.90
2009,04,28,17,41,14.90
2009,04,28,17,42,14.80
2009,04,28,17,43,14.80
2009,04,28,17,44,14.80
2009,04,28,17,45,14.80
2009,04,28,17,46,14.80
2009,04,28,17,47,14.80
2009,04,28,17,48,14.80
2009,04,28,17,49,14.80
2009,04,28,17,50,14.80
2009,04,28,17,51,14.80
2009,04,28,17,52,14.80
2009,04,28,17,53,14.80
2009,04,28,17,54,14.80
2009,04,28,17,55,14.80
2009,04,28,17,56,14.80
2009,04,28,17,57,14.80
2009,04,28,17,58,14.80
2009,04,28,17,59,14.80
2009,04,28,18,00,14.80
2009,04,28,18,01,14.80
2009,04,28,18,02,14.80
2009,04,28,18,03,14.80
2009,04,28,18,04,14.80
2009,04,28,18,05,14.90
2009,04,28,18,06,15.00
2009,04,28,18,07,15.00
2009,04,28,18,08,15.00
2009,04,28,18,09,15.00
2009,04,28,18,10,15.00
2009,04,28,18,11,15.00
2009,04,28,18,12,15.00
2009,04,28,18,13,15.00
2009,04,28,18,14,15.00
2009,04,28,18,15,15.00
2009,04,28,18,16,15.00
2009,04,28,18,17,15.00
2009,04,28,18,18,15.00
2009,04,28,18,19,15.10
2009,04,28,18,20,15.20
2009,04,28,18,21,15.30
2009,04,28,18,22,15.30
2009,04,28,18,23,15.30
2009,04,28,18,24,15.40
2009,04,28,18,25,15.40
2009,04,28,18,26,15.40
2009,04,28,18,27,15.40
2009,04,28,18,28,15.40
2009,04,28,18,29,15.50
2009,04,28,18,30,15.50
2009,04,28,18,31,15.50
2009,04,28,18,32,15.50
2009,04,28,18,33,15.50
2009,04,28,18,34,15.40
2009,04,28,18,35,15.40
2009,04,28,18,36,15.30
2009,04,28,18,37,15.30
2009,04,28,18,38,15.20
2009,04,28,18,39,15.20
2009,04,28,18,40,15.20
2009,04,28,18,41,15.20
2009,04,28,18,42,15.20
2009,04,28,18,43,15.20
2009,04,28,18,44,15.20
2009,04,28,18,45,15.10
2009,04,28,18,46,15.10
2009,04,28,18,47,15.20
2009,04,28,18,48,15.20
2009,04,28,18,49,15.20
2009,04,28,18,50,15.20
2009,04,28,18,51,15.20
2009,04,28,18,52,15.10
2009,04,28,18,53,15.10
2009,04,28,18,54,15.10
2009,04,28,18,55,15.10
2009,04,28,18,56,15.20
2009,04,28,18,57,15.20
2009,04,28,18,58,15.20
2009,04,28,18,59,15.20
2009,04,28,19,00,15.20
2009,04,28,19,01,15.20
2009,04,28,19,02,15.20
2009,04,28,19,03,15.20
2009,04,28,19,04,15.20
2009,04,28,19,05,15.20
2009,04,28,19,06,15.20
